Location: Arleux
(50.3632°N, 2.8721°E)
Time: 16:23:40
(UTC+00:00)

Meteor 1-18 Rocket - Pass Details

Date: 15 December 2019
Orbit: 837 x 909 km, 81.2° (Epoch: 28 January)

Event Time Altitude Azimuth Distance (km) Brightness Sun altitude
Exits shadow 04:45:25 70° 213° (SSW) 893 4.1 -26.8°
Drops below altitude 10° 04:50:29 10° 176° (S) 2,465 6.7 -26.0°
Sets 04:52:54 0° 175° (S) 3,404 7.5 -25.6°
